Time,TemperatureF,DewpointF,PressureIn,WindDirection,WindDirectionDegrees,WindSpeedMPH,WindSpeedGustMPH,Humidity,HourlyPrecipIn,Conditions,Clouds,dailyrainin,SoftwareType,DateUTC
2013-02-15 00:00:00,38.8,33.2,29.93,SSW,209,6.0,9.0,80,0.00,,---,0.00,VWS V13.01,2013-02-15 05:00:00,
2013-02-15 00:05:00,38.8,33.2,29.93,SSW,210,3.0,11.0,80,0.00,,---,0.00,VWS V13.01,2013-02-15 05:05:00,
2013-02-15 00:10:00,38.5,33.2,29.93,SSW,209,4.0,11.0,81,0.00,,---,0.00,VWS V13.01,2013-02-15 05:10:00,
2013-02-15 00:15:00,38.2,33.2,29.93,SSW,202,5.0,11.0,82,0.00,,---,0.00,VWS V13.01,2013-02-15 05:15:00,
2013-02-15 00:20:00,38.0,33.3,29.94,SW,229,4.0,11.0,83,0.00,,---,0.00,VWS V13.01,2013-02-15 05:20:00,
2013-02-15 00:25:00,37.9,33.5,29.94,WSW,240,6.0,11.0,84,0.00,,---,0.00,VWS V13.01,2013-02-15 05:25:00,
2013-02-15 00:30:00,37.8,33.4,29.94,SW,215,5.0,8.0,84,0.00,,---,0.00,VWS V13.01,2013-02-15 05:30:00,
2013-02-15 00:35:00,37.8,33.4,29.94,WSW,238,5.0,9.0,84,0.00,,---,0.00,VWS V13.01,2013-02-15 05:35:00,
2013-02-15 00:40:00,37.8,33.7,29.94,SW,228,8.0,10.0,85,0.00,,---,0.00,VWS V13.01,2013-02-15 05:40:00,
2013-02-15 00:45:00,37.7,33.6,29.94,WSW,238,4.0,10.0,85,0.00,,---,0.00,VWS V13.01,2013-02-15 05:45:00,
2013-02-15 00:50:00,37.7,33.6,29.95,WSW,248,4.0,10.0,85,0.00,,---,0.00,VWS V13.01,2013-02-15 05:50:00,
2013-02-15 00:55:00,37.7,33.9,29.94,SW,233,2.0,10.0,86,0.00,,---,0.00,VWS V13.01,2013-02-15 05:55:00,
2013-02-15 01:00:00,37.7,33.9,29.94,SW,225,5.0,5.0,86,0.00,,---,0.00,VWS V13.01,2013-02-15 06:00:00,
2013-02-15 01:05:00,37.8,34.0,29.95,WSW,242,1.0,6.0,86,0.00,,---,0.00,VWS V13.01,2013-02-15 06:05:00,
2013-02-15 01:10:00,37.9,34.1,29.95,WNW,285,5.0,8.0,86,0.00,,---,0.00,VWS V13.01,2013-02-15 06:10:00,
2013-02-15 01:15:00,37.8,34.0,29.94,SW,223,2.0,8.0,86,0.00,,---,0.00,VWS V13.01,2013-02-15 06:15:00,
2013-02-15 01:20:00,37.7,33.6,29.94,SW,229,1.0,8.0,85,0.00,,---,0.00,VWS V13.01,2013-02-15 06:20:00,
2013-02-15 01:25:00,37.5,33.7,29.94,SW,229,4.0,8.0,86,0.00,,---,0.00,VWS V13.01,2013-02-15 06:25:00,
2013-02-15 01:30:00,37.4,33.6,29.95,SW,228,2.0,3.0,86,0.00,,---,0.00,VWS V13.01,2013-02-15 06:30:00,
2013-02-15 01:35:00,37.2,33.1,29.95,SW,228,1.0,3.0,85,0.00,,---,0.00,VWS V13.01,2013-02-15 06:35:00,
2013-02-15 01:40:00,37.0,33.2,29.95,SW,229,1.0,3.0,86,0.00,,---,0.00,VWS V13.01,2013-02-15 06:40:00,
2013-02-15 01:45:00,36.9,33.4,29.95,SW,224,2.0,4.0,87,0.00,,---,0.00,VWS V13.01,2013-02-15 06:45:00,
2013-02-15 01:50:00,37.0,33.5,29.95,SW,217,3.0,4.0,87,0.00,,---,0.00,VWS V13.01,2013-02-15 06:50:00,
2013-02-15 01:55:00,37.1,33.6,29.95,SW,217,1.0,4.0,87,0.00,,---,0.00,VWS V13.01,2013-02-15 06:55:00,
2013-02-15 02:00:00,37.2,33.7,29.95,SW,217,1.0,2.0,87,0.00,,---,0.00,VWS V13.01,2013-02-15 07:00:00,
2013-02-15 02:05:00,37.3,33.8,29.95,SW,234,3.0,5.0,87,0.00,,---,0.00,VWS V13.01,2013-02-15 07:05:00,
2013-02-15 02:10:00,37.5,34.0,29.95,SW,214,1.0,5.0,87,0.00,,---,0.00,VWS V13.01,2013-02-15 07:10:00,
2013-02-15 02:15:00,37.8,34.0,29.95,SW,222,4.0,5.0,86,0.00,,---,0.00,VWS V13.01,2013-02-15 07:15:00,
2013-02-15 02:20:00,38.0,34.2,29.95,SSW,203,1.0,5.0,86,0.00,,---,0.00,VWS V13.01,2013-02-15 07:20:00,
2013-02-15 02:25:00,38.2,34.4,29.96,WSW,245,4.0,7.0,86,0.00,,---,0.00,VWS V13.01,2013-02-15 07:25:00,
2013-02-15 02:30:00,38.6,34.5,29.96,SSW,208,2.0,7.0,85,0.00,,---,0.00,VWS V13.01,2013-02-15 07:30:00,
2013-02-15 02:35:00,38.8,34.4,29.96,WSW,258,7.0,9.0,84,0.00,,---,0.00,VWS V13.01,2013-02-15 07:35:00,
2013-02-15 02:40:00,38.9,34.5,29.96,SW,230,9.0,9.0,84,0.00,,---,0.00,VWS V13.01,2013-02-15 07:40:00,
2013-02-15 02:45:00,39.0,34.6,29.96,SW,232,7.0,14.0,84,0.00,,---,0.00,VWS V13.01,2013-02-15 07:45:00,
2013-02-15 02:50:00,39.1,34.7,29.96,SW,217,2.0,14.0,84,0.00,,---,0.00,VWS V13.01,2013-02-15 07:50:00,
2013-02-15 02:55:00,39.1,34.7,29.96,SW,222,6.0,14.0,84,0.00,,---,0.00,VWS V13.01,2013-02-15 07:55:00,
2013-02-15 03:00:00,39.1,34.7,29.96,SW,225,6.0,8.0,84,0.00,,---,0.00,VWS V13.01,2013-02-15 08:00:00,
2013-02-15 03:05:00,39.1,34.7,29.97,SW,231,7.0,8.0,84,0.00,,---,0.00,VWS V13.01,2013-02-15 08:05:00,
2013-02-15 03:10:00,39.0,34.3,29.97,SW,216,5.0,9.0,83,0.00,,---,0.00,VWS V13.01,2013-02-15 08:10:00,
2013-02-15 03:16:00,38.9,34.2,29.97,SW,218,3.0,9.0,83,0.00,,---,0.00,VWS V13.01,2013-02-15 08:16:00,
2013-02-15 03:21:00,38.8,34.1,29.97,WSW,246,2.0,9.0,83,0.00,,---,0.00,VWS V13.01,2013-02-15 08:21:00,
2013-02-15 03:26:00,38.7,34.3,29.96,SSW,207,4.0,9.0,84,0.00,,---,0.00,VWS V13.01,2013-02-15 08:26:00,
2013-02-15 03:31:00,38.6,33.9,29.96,SW,225,6.0,6.0,83,0.00,,---,0.00,VWS V13.01,2013-02-15 08:31:00,
2013-02-15 03:36:00,38.6,34.2,29.97,WSW,256,6.0,8.0,84,0.00,,---,0.00,VWS V13.01,2013-02-15 08:36:00,
2013-02-15 03:41:00,38.6,34.2,29.97,SW,228,7.0,8.0,84,0.00,,---,0.00,VWS V13.01,2013-02-15 08:41:00,
2013-02-15 03:46:00,38.6,34.2,29.97,WSW,257,4.0,10.0,84,0.00,,---,0.00,VWS V13.01,2013-02-15 08:46:00,
2013-02-15 03:51:00,38.6,34.2,29.97,SW,235,4.0,10.0,84,0.00,,---,0.00,VWS V13.01,2013-02-15 08:51:00,
2013-02-15 03:56:00,38.5,34.1,29.98,SW,222,2.0,10.0,84,0.00,,---,0.00,VWS V13.01,2013-02-15 08:56:00,
2013-02-15 04:01:00,38.4,34.0,29.98,WSW,258,1.0,2.0,84,0.00,,---,0.00,VWS V13.01,2013-02-15 09:01:00,
2013-02-15 04:06:00,38.4,34.0,29.98,WSW,257,4.0,5.0,84,0.00,,---,0.00,VWS V13.01,2013-02-15 09:06:00,
2013-02-15 04:11:00,38.2,33.2,29.98,SW,219,3.0,7.0,82,0.00,,---,0.00,VWS V13.01,2013-02-15 09:11:00,
2013-02-15 04:16:00,38.1,32.8,29.98,SW,226,4.0,11.0,81,0.00,,---,0.00,VWS V13.01,2013-02-15 09:16:00,
2013-02-15 04:21:00,38.0,32.7,29.98,SW,228,3.0,11.0,81,0.00,,---,0.00,VWS V13.01,2013-02-15 09:21:00,
2013-02-15 04:26:00,38.0,31.8,29.98,West,259,10.0,13.0,78,0.00,,---,0.00,VWS V13.01,2013-02-15 09:26:00,
2013-02-15 04:31:00,37.8,30.3,29.99,WSW,257,10.0,12.0,74,0.00,,---,0.00,VWS V13.01,2013-02-15 09:31:00,
2013-02-15 04:36:00,37.5,30.0,29.98,WSW,241,4.0,12.0,74,0.00,,---,0.00,VWS V13.01,2013-02-15 09:36:00,
2013-02-15 04:41:00,37.3,29.1,29.99,WSW,246,7.0,13.0,72,0.00,,---,0.00,VWS V13.01,2013-02-15 09:41:00,
2013-02-15 04:46:00,37.0,28.8,30.00,WSW,245,10.0,14.0,72,0.00,,---,0.00,VWS V13.01,2013-02-15 09:46:00,
2013-02-15 04:51:00,36.8,28.3,30.00,SW,228,4.0,14.0,71,0.00,,---,0.00,VWS V13.01,2013-02-15 09:51:00,
2013-02-15 04:56:00,36.4,27.6,30.00,West,261,7.0,14.0,70,0.00,,---,0.00,VWS V13.01,2013-02-15 09:56:00,
2013-02-15 05:01:00,36.1,27.6,30.00,WSW,241,2.0,5.0,71,0.00,,---,0.00,VWS V13.01,2013-02-15 10:01:00,
2013-02-15 05:05:00,35.8,27.3,30.00,West,259,2.0,8.0,71,0.00,,---,0.00,VWS V13.01,2013-02-15 10:05:00,
2013-02-15 05:10:00,35.5,27.4,30.00,WSW,251,4.0,8.0,72,0.00,,---,0.00,VWS V13.01,2013-02-15 10:10:00,
2013-02-15 05:15:00,35.4,27.6,30.00,West,265,3.0,8.0,73,0.00,,---,0.00,VWS V13.01,2013-02-15 10:15:00,
2013-02-15 05:21:00,35.1,27.3,30.00,WSW,246,1.0,8.0,73,0.00,,---,0.00,VWS V13.01,2013-02-15 10:21:00,
2013-02-15 05:26:00,34.9,27.1,30.00,WSW,244,2.0,8.0,73,0.00,,---,0.00,VWS V13.01,2013-02-15 10:26:00,
2013-02-15 05:31:00,34.7,27.3,30.00,WSW,242,2.0,3.0,74,0.00,,---,0.00,VWS V13.01,2013-02-15 10:31:00,
2013-02-15 05:36:00,34.5,27.1,30.00,WSW,247,3.0,7.0,74,0.00,,---,0.00,VWS V13.01,2013-02-15 10:36:00,
2013-02-15 05:41:00,34.3,27.2,30.00,WSW,252,3.0,7.0,75,0.00,,---,0.00,VWS V13.01,2013-02-15 10:41:00,
2013-02-15 05:46:00,34.1,27.0,30.01,West,261,4.0,7.0,75,0.00,,---,0.00,VWS V13.01,2013-02-15 10:46:00,
2013-02-15 05:51:00,33.9,27.1,30.01,WSW,238,2.0,7.0,76,0.00,,---,0.00,VWS V13.01,2013-02-15 10:51:00,
2013-02-15 05:56:00,33.8,27.0,30.01,SW,230,4.0,7.0,76,0.00,,---,0.00,VWS V13.01,2013-02-15 10:56:00,
2013-02-15 06:01:00,33.7,27.3,30.01,SW,230,3.0,5.0,77,0.00,,---,0.00,VWS V13.01,2013-02-15 11:01:00,
2013-02-15 06:06:00,33.7,27.3,30.02,SW,223,5.0,7.0,77,0.00,,---,0.00,VWS V13.01,2013-02-15 11:06:00,
2013-02-15 06:11:00,33.7,27.6,30.02,SW,219,4.0,8.0,78,0.00,,---,0.00,VWS V13.01,2013-02-15 11:11:00,
2013-02-15 06:16:00,33.8,27.7,30.02,SW,233,3.0,8.0,78,0.00,,---,0.00,VWS V13.01,2013-02-15 11:16:00,
2013-02-15 06:21:00,33.7,27.9,30.02,SW,228,4.0,8.0,79,0.00,,---,0.00,VWS V13.01,2013-02-15 11:21:00,
2013-02-15 06:26:00,33.6,27.8,30.02,SW,217,3.0,8.0,79,0.00,,---,0.00,VWS V13.01,2013-02-15 11:26:00,
2013-02-15 06:31:00,33.4,27.6,30.03,SW,228,2.0,2.0,79,0.00,,---,0.00,VWS V13.01,2013-02-15 11:31:00,
2013-02-15 06:36:00,33.2,27.7,30.03,SW,228,1.0,3.0,80,0.00,,---,0.00,VWS V13.01,2013-02-15 11:36:00,
2013-02-15 06:41:00,32.9,27.4,30.03,SW,228,1.0,3.0,80,0.00,,---,0.00,VWS V13.01,2013-02-15 11:41:00,
2013-02-15 06:46:00,32.6,27.4,30.03,SW,228,0.0,3.0,81,0.00,,---,0.00,VWS V13.01,2013-02-15 11:46:00,
2013-02-15 06:51:00,32.3,27.1,30.03,SW,228,0.0,3.0,81,0.00,,---,0.00,VWS V13.01,2013-02-15 11:51:00,
2013-02-15 06:56:00,32.2,27.6,30.03,SW,228,1.0,3.0,83,0.00,,---,0.00,VWS V13.01,2013-02-15 11:56:00,
2013-02-15 07:01:00,32.2,27.9,30.03,SW,218,3.0,4.0,84,0.00,,---,0.00,VWS V13.01,2013-02-15 12:01:00,
2013-02-15 07:06:00,32.3,28.0,30.04,SW,221,2.0,4.0,84,0.00,,---,0.00,VWS V13.01,2013-02-15 12:06:00,
2013-02-15 07:11:00,32.5,27.9,30.04,SW,220,1.0,5.0,83,0.00,,---,0.00,VWS V13.01,2013-02-15 12:11:00,
2013-02-15 07:16:00,32.5,27.9,30.03,SW,216,3.0,5.0,83,0.00,,---,0.00,VWS V13.01,2013-02-15 12:16:00,
2013-02-15 07:21:00,32.5,27.9,30.04,SW,221,2.0,5.0,83,0.00,,---,0.00,VWS V13.01,2013-02-15 12:21:00,
2013-02-15 07:26:00,32.6,28.0,30.04,SW,228,3.0,5.0,83,0.00,,---,0.00,VWS V13.01,2013-02-15 12:26:00,
2013-02-15 07:31:00,32.6,28.0,30.04,SW,217,1.0,3.0,83,0.00,,---,0.00,VWS V13.01,2013-02-15 12:31:00,
2013-02-15 07:36:00,32.6,28.0,30.04,SW,217,1.0,4.0,83,0.00,,---,0.00,VWS V13.01,2013-02-15 12:36:00,
2013-02-15 07:41:00,32.7,28.1,30.04,SSW,213,3.0,5.0,83,0.00,,---,0.00,VWS V13.01,2013-02-15 12:41:00,
2013-02-15 07:46:00,32.9,28.3,30.04,SW,225,4.0,5.0,83,0.00,,---,0.00,VWS V13.01,2013-02-15 12:46:00,
2013-02-15 07:51:00,33.2,28.6,30.05,SW,224,3.0,6.0,83,0.00,,---,0.00,VWS V13.01,2013-02-15 12:51:00,
2013-02-15 07:56:00,33.4,28.8,30.05,SW,223,4.0,6.0,83,0.00,,---,0.00,VWS V13.01,2013-02-15 12:56:00,
2013-02-15 08:01:00,33.7,28.8,30.05,SSW,213,4.0,6.0,82,0.00,,---,0.00,VWS V13.01,2013-02-15 13:01:00,
2013-02-15 08:06:00,34.1,28.9,30.05,SSW,207,3.0,7.0,81,0.00,,---,0.00,VWS V13.01,2013-02-15 13:06:00,
2013-02-15 08:11:00,34.3,28.8,30.05,WSW,244,3.0,7.0,80,0.00,,---,0.00,VWS V13.01,2013-02-15 13:11:00,
2013-02-15 08:16:00,34.5,29.0,30.06,SW,230,4.0,10.0,80,0.00,,---,0.00,VWS V13.01,2013-02-15 13:16:00,
2013-02-15 08:21:00,34.6,29.1,30.06,SW,217,8.0,10.0,80,0.00,,---,0.00,VWS V13.01,2013-02-15 13:21:00,
2013-02-15 08:26:00,34.7,28.9,30.06,SW,226,4.0,10.0,79,0.00,,---,0.00,VWS V13.01,2013-02-15 13:26:00,
2013-02-15 08:31:00,34.8,29.0,30.06,WSW,250,2.0,5.0,79,0.00,,---,0.00,VWS V13.01,2013-02-15 13:31:00,
2013-02-15 08:36:00,34.9,28.8,30.06,SW,218,3.0,7.0,78,0.00,,---,0.00,VWS V13.01,2013-02-15 13:36:00,
2013-02-15 08:41:00,35.0,28.9,30.06,SW,217,5.0,7.0,78,0.00,,---,0.00,VWS V13.01,2013-02-15 13:41:00,
2013-02-15 08:46:00,35.1,28.9,30.06,SW,227,3.0,7.0,78,0.00,,---,0.00,VWS V13.01,2013-02-15 13:46:00,
2013-02-15 08:51:00,35.2,29.0,30.06,WSW,244,2.0,7.0,78,0.00,,---,0.00,VWS V13.01,2013-02-15 13:51:00,
2013-02-15 08:56:00,35.4,29.2,30.06,SSW,208,3.0,8.0,78,0.00,,---,0.00,VWS V13.01,2013-02-15 13:56:00,
2013-02-15 09:01:00,35.7,29.5,30.06,SW,226,3.0,8.0,78,0.00,,---,0.00,VWS V13.01,2013-02-15 14:01:00,
2013-02-15 09:06:00,35.9,29.4,30.06,SW,223,2.0,8.0,77,0.00,,---,0.00,VWS V13.01,2013-02-15 14:06:00,
2013-02-15 09:11:00,36.1,29.6,30.06,SW,234,4.0,8.0,77,0.00,,---,0.00,VWS V13.01,2013-02-15 14:11:00,
2013-02-15 09:16:00,36.4,29.9,30.05,SSW,213,3.0,8.0,77,0.00,,---,0.00,VWS V13.01,2013-02-15 14:16:00,
2013-02-15 09:21:00,36.7,29.5,30.05,SSW,211,3.0,9.0,75,0.00,,---,0.00,VWS V13.01,2013-02-15 14:21:00,
2013-02-15 09:26:00,36.9,29.4,30.06,WSW,238,5.0,11.0,74,0.00,,---,0.00,VWS V13.01,2013-02-15 14:26:00,
2013-02-15 09:31:00,37.2,29.7,30.06,SSW,209,7.0,9.0,74,0.00,,---,0.00,VWS V13.01,2013-02-15 14:31:00,
2013-02-15 09:36:00,37.4,29.9,30.06,SW,236,5.0,12.0,74,0.00,,---,0.00,VWS V13.01,2013-02-15 14:36:00,
2013-02-15 09:41:00,37.6,29.4,30.06,West,279,6.0,12.0,72,0.00,,---,0.00,VWS V13.01,2013-02-15 14:41:00,
2013-02-15 09:46:00,37.8,29.6,30.06,SW,236,8.0,13.0,72,0.00,,---,0.00,VWS V13.01,2013-02-15 14:46:00,
2013-02-15 09:51:00,38.0,30.1,30.06,SW,228,8.0,13.0,73,0.00,,---,0.00,VWS V13.01,2013-02-15 14:51:00,
2013-02-15 09:56:00,38.2,30.0,30.06,SW,233,8.0,13.0,72,0.00,,---,0.00,VWS V13.01,2013-02-15 14:56:00,
2013-02-15 10:01:00,38.5,30.3,30.06,SSW,211,5.0,14.0,72,0.00,,---,0.00,VWS V13.01,2013-02-15 15:01:00,
2013-02-15 10:06:00,39.2,31.0,30.06,WSW,258,7.0,14.0,72,0.00,,---,0.00,VWS V13.01,2013-02-15 15:06:00,
2013-02-15 10:11:00,39.7,31.1,30.05,WNW,294,10.0,14.0,71,0.00,,---,0.00,VWS V13.01,2013-02-15 15:11:00,
2013-02-15 10:16:00,39.9,30.6,30.05,SW,228,13.0,14.0,69,0.00,,---,0.00,VWS V13.01,2013-02-15 15:16:00,
2013-02-15 10:21:00,39.6,29.6,30.05,WNW,296,3.0,14.0,67,0.00,,---,0.00,VWS V13.01,2013-02-15 15:21:00,
2013-02-15 10:26:00,39.5,29.8,30.05,WSW,248,8.0,14.0,68,0.00,,---,0.00,VWS V13.01,2013-02-15 15:26:00,
2013-02-15 10:31:00,39.3,30.0,30.05,SW,232,4.0,10.0,69,0.00,,---,0.00,VWS V13.01,2013-02-15 15:31:00,
2013-02-15 10:36:00,39.7,29.7,30.05,SW,221,5.0,14.0,67,0.00,,---,0.00,VWS V13.01,2013-02-15 15:36:00,
2013-02-15 10:41:00,39.9,30.6,30.05,SW,233,6.0,14.0,69,0.00,,---,0.00,VWS V13.01,2013-02-15 15:41:00,
2013-02-15 10:46:00,40.2,30.5,30.05,WSW,256,5.0,14.0,68,0.00,,---,0.00,VWS V13.01,2013-02-15 15:46:00,
2013-02-15 10:51:00,40.4,30.3,30.05,WSW,239,4.0,14.0,67,0.00,,---,0.00,VWS V13.01,2013-02-15 15:51:00,
2013-02-15 10:56:00,40.4,30.0,30.05,WNW,283,11.0,14.0,66,0.00,,---,0.00,VWS V13.01,2013-02-15 15:56:00,
2013-02-15 11:01:00,40.0,28.8,30.05,West,269,4.0,13.0,64,0.00,,---,0.00,VWS V13.01,2013-02-15 16:01:00,
2013-02-15 11:06:00,40.2,29.8,30.05,SW,222,6.0,13.0,66,0.00,,---,0.00,VWS V13.01,2013-02-15 16:06:00,
2013-02-15 11:11:00,40.5,30.0,30.05,WNW,286,10.0,18.0,66,0.00,,---,0.00,VWS V13.01,2013-02-15 16:11:00,
2013-02-15 11:16:00,40.7,30.6,30.05,SW,231,7.0,18.0,67,0.00,,---,0.00,VWS V13.01,2013-02-15 16:16:00,
2013-02-15 11:21:00,41.1,29.9,30.05,SSW,194,9.0,18.0,64,0.00,,---,0.00,VWS V13.01,2013-02-15 16:21:00,
2013-02-15 11:26:00,41.2,29.6,30.05,SW,234,9.0,18.0,63,0.00,,---,0.00,VWS V13.01,2013-02-15 16:26:00,
2013-02-15 11:31:00,41.0,29.8,30.05,WSW,237,9.0,13.0,64,0.00,,---,0.00,VWS V13.01,2013-02-15 16:31:00,
2013-02-15 11:36:00,41.1,29.5,30.05,SW,228,8.0,14.0,63,0.00,,---,0.00,VWS V13.01,2013-02-15 16:36:00,
2013-02-15 11:41:00,40.8,28.8,30.04,SW,234,10.0,17.0,62,0.00,,---,0.00,VWS V13.01,2013-02-15 16:41:00,
2013-02-15 11:46:00,40.7,29.1,30.05,SW,233,3.0,17.0,63,0.00,,---,0.00,VWS V13.01,2013-02-15 16:46:00,
2013-02-15 11:51:00,41.1,29.9,30.04,SW,236,8.0,17.0,64,0.00,,---,0.00,VWS V13.01,2013-02-15 16:51:00,
2013-02-15 11:56:00,41.5,29.9,30.04,West,275,7.0,17.0,63,0.00,,---,0.00,VWS V13.01,2013-02-15 16:56:00,
2013-02-15 12:01:00,41.6,29.6,30.04,WSW,242,7.0,14.0,62,0.00,,---,0.00,VWS V13.01,2013-02-15 17:01:00,
2013-02-15 12:06:00,41.5,29.1,30.04,SSW,203,7.0,16.0,61,0.00,,---,0.00,VWS V13.01,2013-02-15 17:06:00,
2013-02-15 12:11:00,41.5,29.1,30.04,SW,223,9.0,16.0,61,0.00,,---,0.00,VWS V13.01,2013-02-15 17:11:00,
2013-02-15 12:16:00,42.1,29.2,30.03,SW,225,14.0,16.0,60,0.00,,---,0.00,VWS V13.01,2013-02-15 17:16:00,
2013-02-15 12:21:00,41.8,29.0,30.03,SW,229,5.0,16.0,60,0.00,,---,0.00,VWS V13.01,2013-02-15 17:21:00,
2013-02-15 12:26:00,41.8,29.0,30.03,West,275,10.0,16.0,60,0.00,,---,0.00,VWS V13.01,2013-02-15 17:26:00,
2013-02-15 12:31:00,41.4,29.0,30.03,WSW,242,6.0,11.0,61,0.00,,---,0.00,VWS V13.01,2013-02-15 17:31:00,
2013-02-15 12:36:00,41.4,29.4,30.03,WSW,246,7.0,13.0,62,0.00,,---,0.00,VWS V13.01,2013-02-15 17:36:00,
2013-02-15 12:41:00,41.2,29.6,30.03,WSW,250,7.0,13.0,63,0.00,,---,0.00,VWS V13.01,2013-02-15 17:41:00,
2013-02-15 12:46:00,40.9,29.3,30.03,SW,215,8.0,14.0,63,0.00,,---,0.00,VWS V13.01,2013-02-15 17:46:00,
2013-02-15 12:51:00,40.6,28.6,30.03,SW,225,9.0,14.0,62,0.00,,---,0.00,VWS V13.01,2013-02-15 17:51:00,
2013-02-15 12:56:00,40.2,28.6,30.02,WSW,243,7.0,15.0,63,0.00,,---,0.00,VWS V13.01,2013-02-15 17:56:00,
2013-02-15 13:01:00,40.1,28.5,30.02,WSW,246,10.0,12.0,63,0.00,,---,0.00,VWS V13.01,2013-02-15 18:01:00,
2013-02-15 13:06:00,40.0,28.4,30.02,WSW,238,11.0,15.0,63,0.00,,---,0.00,VWS V13.01,2013-02-15 18:06:00,
2013-02-15 13:11:00,40.1,28.5,30.02,SW,235,5.0,15.0,63,0.00,,---,0.00,VWS V13.01,2013-02-15 18:11:00,
2013-02-15 13:16:00,40.2,27.8,30.02,WSW,240,6.0,15.0,61,0.00,,---,0.00,VWS V13.01,2013-02-15 18:16:00,
2013-02-15 13:21:00,40.4,28.8,30.02,SW,222,4.0,15.0,63,0.00,,---,0.00,VWS V13.01,2013-02-15 18:21:00,
2013-02-15 13:26:00,40.5,28.5,30.02,WSW,240,6.0,15.0,62,0.00,,---,0.00,VWS V13.01,2013-02-15 18:26:00,
2013-02-15 13:31:00,40.2,28.6,30.02,West,266,5.0,13.0,63,0.00,,---,0.00,VWS V13.01,2013-02-15 18:31:00,
2013-02-15 13:36:00,39.7,27.8,30.01,WNW,294,5.0,13.0,62,0.00,,---,0.00,VWS V13.01,2013-02-15 18:36:00,
2013-02-15 13:41:00,39.6,28.1,30.02,WSW,249,3.0,13.0,63,0.00,,---,0.00,VWS V13.01,2013-02-15 18:41:00,
2013-02-15 13:46:00,39.5,28.4,30.02,West,278,5.0,13.0,64,0.00,,---,0.00,VWS V13.01,2013-02-15 18:46:00,
2013-02-15 13:51:00,39.5,28.7,30.02,WSW,250,5.0,13.0,65,0.00,,---,0.00,VWS V13.01,2013-02-15 18:51:00,
2013-02-15 13:56:00,39.5,28.7,30.02,SW,222,8.0,13.0,65,0.00,,---,0.00,VWS V13.01,2013-02-15 18:56:00,
2013-02-15 14:01:00,39.5,28.4,30.01,WSW,250,7.0,7.0,64,0.00,,---,0.00,VWS V13.01,2013-02-15 19:01:00,
2013-02-15 14:06:00,39.7,28.9,30.01,SW,232,6.0,8.0,65,0.00,,---,0.00,VWS V13.01,2013-02-15 19:06:00,
2013-02-15 14:11:00,39.7,28.5,30.01,WSW,237,3.0,12.0,64,0.00,,---,0.00,VWS V13.01,2013-02-15 19:11:00,
2013-02-15 14:16:00,39.6,28.4,30.01,SW,224,7.0,13.0,64,0.00,,---,0.00,VWS V13.01,2013-02-15 19:16:00,
2013-02-15 14:21:00,39.4,28.2,30.01,SW,223,6.0,13.0,64,0.00,,---,0.00,VWS V13.01,2013-02-15 19:21:00,
2013-02-15 14:26:00,39.2,28.8,30.01,SW,229,8.0,14.0,66,0.00,,---,0.00,VWS V13.01,2013-02-15 19:26:00,
2013-02-15 14:31:00,38.9,28.5,30.01,WSW,248,7.0,9.0,66,0.00,,---,0.00,VWS V13.01,2013-02-15 19:31:00,
2013-02-15 14:36:00,38.8,29.2,30.01,SW,229,7.0,12.0,68,0.00,,---,0.00,VWS V13.01,2013-02-15 19:36:00,
2013-02-15 14:42:00,38.5,29.2,30.01,WSW,243,8.0,12.0,69,0.00,,---,0.00,VWS V13.01,2013-02-15 19:42:00,
2013-02-15 14:47:00,38.3,30.1,30.01,SW,217,5.0,12.0,72,0.00,,---,0.00,VWS V13.01,2013-02-15 19:47:00,
2013-02-15 14:52:00,37.9,30.4,30.01,SW,223,5.0,12.0,74,0.00,,---,0.00,VWS V13.01,2013-02-15 19:52:00,
2013-02-15 14:57:00,37.7,30.2,30.01,SW,222,5.0,12.0,74,0.00,,---,0.00,VWS V13.01,2013-02-15 19:57:00,
2013-02-15 15:02:00,37.5,30.3,30.02,SW,216,4.0,9.0,75,0.00,,---,0.00,VWS V13.01,2013-02-15 20:02:00,
2013-02-15 15:07:00,37.4,30.2,30.01,WSW,243,4.0,10.0,75,0.00,,---,0.00,VWS V13.01,2013-02-15 20:07:00,
2013-02-15 15:12:00,37.6,30.7,30.01,SW,231,9.0,10.0,76,0.00,,---,0.00,VWS V13.01,2013-02-15 20:12:00,
2013-02-15 15:17:00,37.7,31.1,30.01,South,179,2.0,10.0,77,0.00,,---,0.00,VWS V13.01,2013-02-15 20:17:00,
2013-02-15 15:22:00,37.6,31.4,30.01,SW,235,5.0,10.0,78,0.00,,---,0.00,VWS V13.01,2013-02-15 20:22:00,
2013-02-15 15:27:00,37.5,31.3,30.01,West,263,6.0,10.0,78,0.00,,---,0.00,VWS V13.01,2013-02-15 20:27:00,
2013-02-15 15:32:00,37.4,31.2,30.01,SSW,205,8.0,10.0,78,0.00,,---,0.00,VWS V13.01,2013-02-15 20:32:00,
2013-02-15 15:37:00,37.4,31.5,30.01,South,186,9.0,11.0,79,0.00,,---,0.00,VWS V13.01,2013-02-15 20:37:00,
2013-02-15 15:42:00,37.3,31.4,30.01,SSW,199,4.0,11.0,79,0.00,,---,0.00,VWS V13.01,2013-02-15 20:42:00,
2013-02-15 15:47:00,37.3,31.7,30.01,SSW,204,4.0,11.0,80,0.00,,---,0.00,VWS V13.01,2013-02-15 20:47:00,
2013-02-15 15:52:00,37.3,32.0,30.01,SSW,198,5.0,11.0,81,0.00,,---,0.00,VWS V13.01,2013-02-15 20:52:00,
2013-02-15 15:57:00,37.3,32.3,30.01,WSW,242,7.0,11.0,82,0.00,,---,0.00,VWS V13.01,2013-02-15 20:57:00,
2013-02-15 16:02:00,37.2,32.2,30.01,SSW,205,6.0,10.0,82,0.00,,---,0.00,VWS V13.01,2013-02-15 21:02:00,
2013-02-15 16:07:00,37.1,32.1,30.01,SW,229,6.0,10.0,82,0.00,,---,0.00,VWS V13.01,2013-02-15 21:07:00,
2013-02-15 16:12:00,37.1,32.4,30.01,WSW,241,10.0,12.0,83,0.00,,---,0.00,VWS V13.01,2013-02-15 21:12:00,
2013-02-15 16:17:00,37.1,32.1,30.01,SSW,213,5.0,12.0,82,0.00,,---,0.00,VWS V13.01,2013-02-15 21:17:00,
2013-02-15 16:22:00,37.0,32.0,30.01,WSW,248,1.0,12.0,82,0.00,,---,0.00,VWS V13.01,2013-02-15 21:22:00,
2013-02-15 16:27:00,37.1,31.8,30.01,WSW,243,6.0,12.0,81,0.00,,---,0.00,VWS V13.01,2013-02-15 21:27:00,
2013-02-15 16:32:00,37.1,31.8,30.02,SW,236,9.0,9.0,81,0.00,,---,0.00,VWS V13.01,2013-02-15 21:32:00,
2013-02-15 16:37:00,37.0,32.3,30.01,SW,229,3.0,9.0,83,0.00,,---,0.00,VWS V13.01,2013-02-15 21:37:00,
2013-02-15 16:42:00,36.9,32.5,30.02,West,260,5.0,9.0,84,0.00,,---,0.00,VWS V13.01,2013-02-15 21:42:00,
2013-02-15 16:47:00,36.7,32.3,30.02,SSW,203,1.0,9.0,84,0.00,,---,0.00,VWS V13.01,2013-02-15 21:47:00,
2013-02-15 16:52:00,36.6,32.2,30.02,SSW,194,3.0,9.0,84,0.00,,---,0.00,VWS V13.01,2013-02-15 21:52:00,
2013-02-15 16:57:00,36.5,32.1,30.01,SW,229,8.0,9.0,84,0.00,,---,0.00,VWS V13.01,2013-02-15 21:57:00,
2013-02-15 17:02:00,36.3,31.9,30.02,SSW,212,5.0,12.0,84,0.00,,---,0.00,VWS V13.01,2013-02-15 22:02:00,
2013-02-15 17:07:00,36.0,31.6,30.02,West,259,6.0,12.0,84,0.00,,---,0.00,VWS V13.01,2013-02-15 22:07:00,
2013-02-15 17:12:00,35.5,31.5,30.02,WSW,239,5.0,12.0,85,0.00,,---,0.00,VWS V13.01,2013-02-15 22:12:00,
2013-02-15 17:17:00,35.1,31.6,30.02,SSW,213,4.0,12.0,87,0.00,,---,0.00,VWS V13.01,2013-02-15 22:17:00,
2013-02-15 17:22:00,34.8,31.6,30.02,SW,223,6.0,12.0,88,0.00,,---,0.00,VWS V13.01,2013-02-15 22:22:00,
2013-02-15 17:27:00,34.5,31.3,30.02,SW,234,5.0,12.0,88,0.00,,---,0.00,VWS V13.01,2013-02-15 22:27:00,
2013-02-15 17:32:00,34.4,31.5,30.02,SW,214,2.0,5.0,89,0.00,,---,0.00,VWS V13.01,2013-02-15 22:32:00,
2013-02-15 17:37:00,34.4,31.5,30.02,SW,226,1.0,7.0,89,0.00,,---,0.00,VWS V13.01,2013-02-15 22:37:00,
2013-02-15 17:42:00,34.4,31.5,30.03,SW,221,4.0,7.0,89,0.00,,---,0.00,VWS V13.01,2013-02-15 22:42:00,
2013-02-15 17:47:00,34.4,31.5,30.03,SW,231,3.0,7.0,89,0.00,,---,0.00,VWS V13.01,2013-02-15 22:47:00,
2013-02-15 17:52:00,34.2,31.3,30.03,WSW,238,4.0,7.0,89,0.00,,---,0.00,VWS V13.01,2013-02-15 22:52:00,
2013-02-15 17:57:00,34.1,31.5,30.03,WSW,240,1.0,7.0,90,0.00,,---,0.00,VWS V13.01,2013-02-15 22:57:00,
2013-02-15 18:02:00,34.0,31.4,30.03,WSW,238,1.0,4.0,90,0.00,,---,0.00,VWS V13.01,2013-02-15 23:02:00,
2013-02-15 18:07:00,33.9,31.3,30.03,WSW,239,1.0,4.0,90,0.00,,---,0.00,VWS V13.01,2013-02-15 23:07:00,
2013-02-15 18:12:00,33.8,31.5,30.03,SW,230,1.0,4.0,91,0.00,,---,0.00,VWS V13.01,2013-02-15 23:12:00,
2013-02-15 18:17:00,33.7,31.4,30.03,SW,230,3.0,5.0,91,0.00,,---,0.00,VWS V13.01,2013-02-15 23:17:00,
2013-02-15 18:22:00,33.6,31.3,30.03,West,265,2.0,5.0,91,0.00,,---,0.00,VWS V13.01,2013-02-15 23:22:00,
2013-02-15 18:27:00,33.6,31.3,30.04,WSW,238,1.0,5.0,91,0.00,,---,0.00,VWS V13.01,2013-02-15 23:27:00,
2013-02-15 18:32:00,33.5,31.2,30.03,SSW,207,3.0,4.0,91,0.00,,---,0.00,VWS V13.01,2013-02-15 23:32:00,
2013-02-15 18:37:00,33.4,31.1,30.03,SW,230,2.0,4.0,91,0.00,,---,0.00,VWS V13.01,2013-02-15 23:37:00,
2013-02-15 18:42:00,33.3,31.0,30.03,SW,235,4.0,4.0,91,0.00,,---,0.00,VWS V13.01,2013-02-15 23:42:00,
2013-02-15 18:47:00,33.3,31.0,30.04,SW,221,3.0,6.0,91,0.00,,---,0.00,VWS V13.01,2013-02-15 23:47:00,
2013-02-15 18:52:00,33.3,31.0,30.04,SSW,212,3.0,6.0,91,0.00,,---,0.00,VWS V13.01,2013-02-15 23:52:00,
2013-02-15 18:57:00,33.3,31.0,30.03,SSW,204,1.0,6.0,91,0.00,,---,0.00,VWS V13.01,2013-02-15 23:57:00,
2013-02-15 19:02:00,33.3,31.0,30.04,SSW,196,3.0,5.0,91,0.00,,---,0.00,VWS V13.01,2013-02-16 00:02:00,
2013-02-15 19:07:00,33.2,30.9,30.04,SW,229,4.0,5.0,91,0.00,,---,0.00,VWS V13.01,2013-02-16 00:07:00,
2013-02-15 19:12:00,33.2,30.9,30.04,WSW,250,3.0,6.0,91,0.00,,---,0.00,VWS V13.01,2013-02-16 00:12:00,
2013-02-15 19:17:00,33.1,30.8,30.04,SSW,211,2.0,6.0,91,0.00,,---,0.00,VWS V13.01,2013-02-16 00:17:00,
2013-02-15 19:22:00,33.1,30.8,30.04,SW,215,4.0,6.0,91,0.00,,---,0.00,VWS V13.01,2013-02-16 00:22:00,
2013-02-15 19:27:00,33.0,30.9,30.04,SSW,200,1.0,6.0,92,0.00,,---,0.00,VWS V13.01,2013-02-16 00:27:00,
2013-02-15 19:32:00,33.0,30.9,30.04,SSW,209,2.0,5.0,92,0.00,,---,0.00,VWS V13.01,2013-02-16 00:32:00,
2013-02-15 19:37:00,33.0,30.9,30.04,SSW,197,3.0,7.0,92,0.00,,---,0.00,VWS V13.01,2013-02-16 00:37:00,
2013-02-15 19:42:00,33.0,30.9,30.04,SSW,203,2.0,7.0,92,0.00,,---,0.00,VWS V13.01,2013-02-16 00:42:00,
2013-02-15 19:47:00,32.9,30.8,30.04,South,176,3.0,7.0,92,0.00,,---,0.00,VWS V13.01,2013-02-16 00:47:00,
2013-02-15 19:52:00,32.9,30.8,30.04,SSW,192,1.0,7.0,92,0.00,,---,0.00,VWS V13.01,2013-02-16 00:52:00,
2013-02-15 19:57:00,32.8,30.7,30.04,SSW,205,3.0,7.0,92,0.00,,---,0.00,VWS V13.01,2013-02-16 00:57:00,
2013-02-15 20:02:00,32.7,30.6,30.04,SSW,203,1.0,4.0,92,0.00,,---,0.00,VWS V13.01,2013-02-16 01:02:00,
2013-02-15 20:07:00,32.6,30.5,30.04,SSW,207,3.0,4.0,92,0.00,,---,0.00,VWS V13.01,2013-02-16 01:07:00,
2013-02-15 20:12:00,32.6,30.5,30.04,SSW,206,0.0,4.0,92,0.00,,---,0.00,VWS V13.01,2013-02-16 01:12:00,
2013-02-15 20:17:00,32.6,30.5,30.04,SW,236,1.0,4.0,92,0.00,,---,0.00,VWS V13.01,2013-02-16 01:17:00,
2013-02-15 20:22:00,32.6,30.5,30.04,SW,225,3.0,4.0,92,0.00,,---,0.00,VWS V13.01,2013-02-16 01:22:00,
2013-02-15 20:27:00,32.6,30.8,30.04,SW,222,3.0,4.0,93,0.00,,---,0.00,VWS V13.01,2013-02-16 01:27:00,
2013-02-15 20:32:00,32.6,30.8,30.04,SW,227,3.0,3.0,93,0.00,,---,0.00,VWS V13.01,2013-02-16 01:32:00,
2013-02-15 20:37:00,32.5,30.7,30.04,SW,227,2.0,3.0,93,0.00,,---,0.00,VWS V13.01,2013-02-16 01:37:00,
2013-02-15 20:42:00,32.6,30.8,30.04,SW,227,1.0,3.0,93,0.00,,---,0.00,VWS V13.01,2013-02-16 01:42:00,
2013-02-15 20:47:00,32.5,30.4,30.04,SW,227,1.0,3.0,92,0.00,,---,0.00,VWS V13.01,2013-02-16 01:47:00,
2013-02-15 20:52:00,32.5,30.4,30.04,SW,227,2.0,3.0,92,0.00,,---,0.00,VWS V13.01,2013-02-16 01:52:00,
2013-02-15 20:57:00,32.6,30.5,30.04,SW,227,2.0,4.0,92,0.00,,---,0.00,VWS V13.01,2013-02-16 01:57:00,
2013-02-15 21:02:00,32.6,30.5,30.04,SW,227,0.0,1.0,92,0.00,,---,0.00,VWS V13.01,2013-02-16 02:02:00,
2013-02-15 21:07:00,32.5,30.4,30.04,SW,229,1.0,4.0,92,0.00,,---,0.00,VWS V13.01,2013-02-16 02:07:00,
2013-02-15 21:12:00,32.5,30.4,30.04,SW,233,2.0,6.0,92,0.00,,---,0.00,VWS V13.01,2013-02-16 02:12:00,
2013-02-15 21:17:00,32.4,30.3,30.04,WSW,250,3.0,7.0,92,0.00,,---,0.00,VWS V13.01,2013-02-16 02:17:00,
2013-02-15 21:22:00,32.2,30.1,30.04,SW,227,3.0,7.0,92,0.00,,---,0.00,VWS V13.01,2013-02-16 02:22:00,
2013-02-15 21:27:00,32.1,30.0,30.04,West,275,3.0,7.0,92,0.00,,---,0.00,VWS V13.01,2013-02-16 02:27:00,
2013-02-15 21:32:00,32.0,29.9,30.04,West,275,1.0,2.0,92,0.00,,---,0.00,VWS V13.01,2013-02-16 02:32:00,
2013-02-15 21:37:00,31.9,29.8,30.04,West,266,2.0,4.0,92,0.00,,---,0.00,VWS V13.01,2013-02-16 02:37:00,
2013-02-15 21:42:00,31.9,30.1,30.04,West,266,1.0,4.0,93,0.00,,---,0.00,VWS V13.01,2013-02-16 02:42:00,
2013-02-15 21:47:00,31.9,30.1,30.04,West,266,0.0,4.0,93,0.00,,---,0.00,VWS V13.01,2013-02-16 02:47:00,
2013-02-15 21:52:00,31.9,30.1,30.04,WNW,302,1.0,4.0,93,0.00,,---,0.00,VWS V13.01,2013-02-16 02:52:00,
2013-02-15 21:57:00,31.8,30.0,30.05,NW,314,0.0,5.0,93,0.00,,---,0.00,VWS V13.01,2013-02-16 02:57:00,
2013-02-15 22:02:00,31.6,29.8,30.05,NW,323,2.0,5.0,93,0.00,,---,0.00,VWS V13.01,2013-02-16 03:02:00,
2013-02-15 22:07:00,31.4,29.6,30.05,NNW,331,4.0,6.0,93,0.00,,---,0.00,VWS V13.01,2013-02-16 03:07:00,
2013-02-15 22:12:00,31.3,29.5,30.05,NNW,327,1.0,6.0,93,0.00,,---,0.00,VWS V13.01,2013-02-16 03:12:00,
2013-02-15 22:17:00,31.2,29.4,30.05,NW,318,2.0,6.0,93,0.00,,---,0.00,VWS V13.01,2013-02-16 03:17:00,
2013-02-15 22:22:00,31.1,29.3,30.05,NW,324,4.0,6.0,93,0.00,,---,0.00,VWS V13.01,2013-02-16 03:22:00,
2013-02-15 22:27:00,31.0,29.2,30.05,NW,309,1.0,6.0,93,0.00,,---,0.00,VWS V13.01,2013-02-16 03:27:00,
2013-02-15 22:32:00,31.0,29.2,30.05,NNW,339,4.0,5.0,93,0.00,,---,0.00,VWS V13.01,2013-02-16 03:32:00,
2013-02-15 22:37:00,30.9,29.1,30.06,WNW,289,5.0,6.0,93,0.00,,---,0.00,VWS V13.01,2013-02-16 03:37:00,
2013-02-15 22:42:00,30.8,29.0,30.05,NW,313,2.0,6.0,93,0.00,,---,0.00,VWS V13.01,2013-02-16 03:42:00,
2013-02-15 22:47:00,30.6,28.8,30.05,NNW,344,2.0,7.0,93,0.00,,---,0.00,VWS V13.01,2013-02-16 03:47:00,
2013-02-15 22:52:00,30.5,28.7,30.06,NW,323,3.0,7.0,93,0.00,,---,0.00,VWS V13.01,2013-02-16 03:52:00,
2013-02-15 22:57:00,30.3,28.5,30.06,NW,320,0.0,7.0,93,0.00,,---,0.00,VWS V13.01,2013-02-16 03:57:00,
2013-02-15 23:02:00,30.2,28.4,30.06,NNW,327,2.0,5.0,93,0.00,,---,0.00,VWS V13.01,2013-02-16 04:02:00,
2013-02-15 23:07:00,30.2,28.4,30.06,NW,325,5.0,5.0,93,0.00,,---,0.00,VWS V13.01,2013-02-16 04:07:00,
2013-02-15 23:12:00,30.1,28.3,30.06,NW,315,2.0,9.0,93,0.00,,---,0.00,VWS V13.01,2013-02-16 04:12:00,
2013-02-15 23:17:00,29.9,28.1,30.06,WNW,302,0.0,9.0,93,0.00,,---,0.00,VWS V13.01,2013-02-16 04:17:00,
2013-02-15 23:22:00,29.9,27.9,30.06,NW,313,1.0,9.0,92,0.00,,---,0.00,VWS V13.01,2013-02-16 04:22:00,
2013-02-15 23:27:00,29.7,27.7,30.06,NNW,332,3.0,9.0,92,0.00,,---,0.00,VWS V13.01,2013-02-16 04:27:00,
2013-02-15 23:32:00,29.6,27.3,30.06,NW,313,3.0,5.0,91,0.00,,---,0.00,VWS V13.01,2013-02-16 04:32:00,
2013-02-15 23:37:00,29.5,27.2,30.06,NW,321,6.0,6.0,91,0.00,,---,0.00,VWS V13.01,2013-02-16 04:37:00,
2013-02-15 23:42:00,29.4,26.8,30.06,NNW,340,3.0,10.0,90,0.00,,---,0.00,VWS V13.01,2013-02-16 04:42:00,
2013-02-15 23:47:00,29.3,26.7,30.06,NNW,338,3.0,10.0,90,0.00,,---,0.00,VWS V13.01,2013-02-16 04:47:00,
2013-02-15 23:52:00,29.3,26.7,30.06,NNE,17,3.0,10.0,90,0.00,,---,0.00,VWS V13.01,2013-02-16 04:52:00,
2013-02-15 23:57:00,29.1,26.3,30.07,WNW,286,4.0,10.0,89,0.00,,---,0.00,VWS V13.01,2013-02-16 04:57:00,